Miscellaneous Local Product
Issued by NWS Hastings, NE

Home | Current Version | Previous Version | Text Only | Print | Product List | Glossary Off
Versions: 1 2 3 4 5 6 7 8 9 10 11 12 13 14 15 16 17 18 19 20 21 22 23 24 25 26 27 28 29 30 31 32 33 34 35 36 37 38 39 40 41 42 43 44 45 46 47 48 49 50

000
AXUS43 KGID 020002
MISGRI

GID CWA HOURLY WEATHER ROUNDUP
NATIONAL WEATHER SERVICE HASTINGS NE
700 PM CDT WED APR 01 2015

NOTE: "FAIR" INDICATES FEW OR NO CLOUDS BELOW 12,000 FEET WITH NO
SIGNIFICANT WEATHER AND/OR OBSTRUCTIONS TO VISIBILITY.

...SOUTH CENTRAL NEBRASKA...

CITY           SKY/WX    TMP DP  RH WIND       PRES   REMARKS
GRAND ISLAND   PTSUNNY   80  44  27 S16G24    29.51F THUNDER
HASTINGS       PTSUNNY   80  46  30 S17G25    29.50F
KEARNEY        CLOUDY    77  37  24 N22G28    29.53R
ORD            CLOUDY    67  38  34 N24G36    29.56F
YORK           PTCLDY    81  48  32 S23G29    29.52F
AURORA         MOCLDY    82  45  27 S16G25    29.51F
LEXINGTON      PTSUNNY   73  37  27 N21G29    29.57S
HOLDREGE       PTSUNNY   81  40  23 S12G21    29.52S
HEBRON         MOCLDY    80  44  27 S14       29.56S

...NEBRASKA PANHANDLE...

CITY           SKY/WX    TMP DP  RH WIND       PRES   REMARKS
CHADRON        PTSUNNY   55  31  39 NW15G25   29.80R
ALLIANCE       CLOUDY    53  31  42 N23G32    29.76R
SCOTTSBLUFF    PTSUNNY   53  30  41 N28G35    29.79R
SIDNEY         CLOUDY    59  30  33 N16       29.77R

...WESTERN AND NORTH CENTRAL NEBRASKA...

CITY           SKY/WX    TMP DP  RH WIND       PRES   REMARKS
VALENTINE      PTSUNNY   63  29  27 N14G28    29.72R
AINSWORTH      CLOUDY    63  32  31 N17G23    29.70R
ONEILL         CLOUDY    68  40  35 NW24      29.64R
BROKEN BOW     PTSUNNY   67  39  35 N29G37    29.61R
IMPERIAL       CLOUDY    71  30  21 N17       29.65R
NORTH PLATTE   MOSUNNY   67  36  31 N24G31    29.65R
MCCOOK         MOSUNNY   78  30  17 N21G31    29.54S

...EASTERN NEBRASKA...

CITY           SKY/WX    TMP DP  RH WIND       PRES   REMARKS
NORFOLK        TSTM      63  49  60 NW14      29.58R
SO SIOUX CITY  MOCLDY    80  45  28 S21G29    29.49F
TEKAMAH        PTCLDY    82  46  28 S26G36    29.49F
COLUMBUS       PTCLDY    79  45  29 S18G25    29.50F
ALBION         MOCLDY    71  37  28 N17G32    29.56R
OMAHA EPPLEY   MOCLDY    81  48  31 S28G36    29.54F
OFFUTT AFB     CLEAR     80  48  33 S22G29    29.56S
MILLARD        PTCLDY    82  48  31 S14G29    29.56S
LINCOLN        CLEAR     81  46  29 S26G33    29.54R
NEBRASKA CITY  CLEAR     79  44  29 S25G31    29.61S
BEATRICE       CLEAR     80  49  33 S18G26    29.56F
FALLS CITY     CLEAR     77  51  40 S23G31    29.62S

...NORTHERN KANSAS...

CITY           SKY/WX    TMP DP  RH WIND       PRES   REMARKS
GOODLAND       CLOUDY    77  25  14 N10G21    29.58F
HILL CITY      CLOUDY    81  33  17 N16G32    29.51R
NORTON         CLEAR     79  27  14 SE13G20   29.51F
PHILLIPSBURG   SUNNY     86  43  22 S15G23    29.46F
SMITH CENTER   SUNNY     81  46  30 SE12      29.50F
BELOIT         CLEAR     79  45  29 S17       29.50F
HAYS           CLOUDY    84  45  24 S13       29.51F
RUSSELL        PTSUNNY   83  47  28 S16G25    29.50F
CONCORDIA      MOCLDY    81  54  39 S17G30    29.54F
SALINA         CLEAR     83  52  34 S20G33    29.55S
TOPEKA         CLEAR     74  55  51 SE22      29.67S



USA.gov is the U.S. government's official web portal to all federal, state and local government web resources and services.